N5CSC Weather Reports


time (UTC)temp
C
wind
direction
speed
KPH
gust
KPH
rain 1hr
cm
rain 24hr
cm
rain mn
cm
humidity
%
barometer
mb
20260506153039 25 32 1.6 6.4 0.00 0.00 0.00 81 1008.2
20260506151555 25 31 1.6 4.8 0.00 0.00 0.00 82 1008.0
20260506150036 25 31 0.0 6.4 0.00 0.00 0.00 82 1007.9
20260506144534 24 117 1.6 4.8 0.00 0.00 0.00 82 1007.5
20260506143043 24 116 3.2 4.8 0.00 0.00 0.00 82 1007.3
20260506141531 24 119 1.6 4.8 0.00 0.00 0.00 82 1007.3
20260506140033 24 121 0.0 4.8 0.00 0.00 0.00 82 1007.0
20260506134525 23 122 1.6 4.8 0.00 0.00 0.00 82 1006.6
20260506133025 23 134 1.6 4.8 0.00 0.00 0.00 82 1006.6
20260506131526 23 139 1.6 4.8 0.00 0.00 0.00 82 1006.6
20260506130023 23 179 0.0 3.2 0.00 0.00 0.00 82 1006.6
20260506124520 23 179 0.0 1.6 0.00 0.00 0.00 82 1006.7
20260506123020 23 179 0.0 1.6 0.00 0.00 0.00 82 1006.5
20260506121520 23 179 0.0 0.0 0.00 0.00 0.00 82 1006.4
20260506120020 23 179 0.0 1.6 0.00 0.00 0.00 82 1006.4
20260506114523 23 179 0.0 0.0 0.00 0.00 0.00 82 1006.3
20260506113019 23 179 0.0 1.6 0.00 0.00 0.00 81 1006.3
20260506111517 23 180 0.0 3.2 0.00 0.00 0.00 81 1006.3
20260506110017 23 180 0.0 0.0 0.00 0.00 0.00 81 1006.1
20260506104516 23 180 0.0 0.0 0.00 0.00 0.00 81 1006.0
20260506103016 23 180 0.0 0.0 0.00 0.00 0.00 81 1006.0
20260506101522 23 180 0.0 1.6 0.00 0.00 0.00 81 1006.0
20260506100012 23 180 0.0 4.8 0.00 0.00 0.00 81 1006.0
20260506094515 23 181 1.6 8.0 0.00 0.00 0.00 80 1005.9
20260506093009 24 169 1.6 6.4 0.00 0.00 0.00 80 1005.8
20260506091508 24 182 4.8 11.3 0.00 0.00 0.00 80 1005.8
20260506090008 24 184 3.2 9.7 0.00 0.00 0.00 80 1006.0
20260506084514 24 165 3.2 11.3 0.00 0.00 0.00 80 1006.1
20260506083003 24 176 3.2 6.4 0.00 0.00 0.00 79 1006.2
20260506081506 24 183 0.0 6.4 0.00 0.00 0.00 79 1006.1
20260506073105 25 173 3.2 9.7 0.00 0.00 0.00 79 1006.4
20260506071610 25 162 3.2 8.0 0.00 0.00 0.00 79 1006.3
20260506061550 25 153 6.4 12.9 0.00 0.00 0.00 79 1006.6
20260506044542 25 148 1.6 6.4 0.00 0.00 0.00 78 1006.5
20260506043042 25 154 3.2 12.9 0.00 0.00 0.00 78 1006.6
20260506041555 25 152 4.8 9.7 0.00 0.00 0.00 78 1006.4
20260506040041 25 130 3.2 11.3 0.00 0.00 0.00 77 1006.3
20260506034544 25 112 4.8 11.3 0.00 0.00 0.00 77 1006.0
20260506033040 25 142 3.2 8.0 0.00 0.00 0.00 76 1006.0
20260506031539 26 146 4.8 8.0 0.00 0.00 0.00 76 1005.8
20260506030038 26 151 3.2 8.0 0.00 0.00 0.00 75 1005.6
20260506024540 26 120 3.2 8.0 0.00 0.00 0.00 75 1005.5
20260506023038 26 116 4.8 8.0 0.00 0.00 0.00 74 1005.3
20260506021536 26 113 6.4 11.3 0.00 0.00 0.00 73 1004.7
20260506020036 27 113 3.2 9.7 0.00 0.00 0.00 73 1004.5
20260506014545 27 111 6.4 11.3 0.00 0.00 0.00 72 1004.5
20260506013038 27 117 3.2 8.0 0.00 0.00 0.00 71 1004.4
20260506011539 27 109 3.2 11.3 0.00 0.00 0.00 70 1004.0
20260506010034 28 115 3.2 11.3 0.00 0.00 0.00 68 1003.7
20260506004540 28 120 4.8 11.3 0.00 0.00 0.00 67 1003.6
20260506003033 28 113 4.8 8.0 0.00 0.00 0.00 66 1003.5
20260506001531 29 114 3.2 6.4 0.00 0.00 0.00 65 1003.4
20260506000039 29 113 6.4 12.9 0.00 0.00 0.00 64 1003.3
20260505234531 29 112 3.2 8.0 0.00 0.00 0.00 64 1003.2
20260505233030 30 115 6.4 11.3 0.00 0.00 0.00 63 1003.0
20260505231530 30 113 4.8 12.9 0.00 0.00 0.00 63 1003.1
20260505230033 30 113 4.8 11.3 0.00 0.00 0.00 63 1003.0
20260505224536 30 112 4.8 8.0 0.00 0.00 0.00 63 1003.1
20260505223039 30 111 3.2 11.3 0.00 0.00 0.00 63 1003.3
20260505221526 30 119 3.2 9.7 0.00 0.00 0.00 63 1003.3
20260505220035 30 190 4.8 11.3 0.00 0.00 0.00 63 1003.3
20260505214537 30 109 4.8 9.7 0.00 0.00 0.00 62 1003.7
20260505213028 30 180 3.2 9.7 0.00 0.00 0.00 65 1004.0
20260505211516 30 113 3.2 6.4 0.00 0.00 0.00 64 1004.3
20260505210016 30 165 4.8 12.9 0.00 0.00 0.00 67 1004.3
20260505204518 29 177 3.2 9.7 0.00 0.00 0.00 66 1004.7
20260505203008 29 115 1.6 8.0 0.00 0.00 0.00 67 1004.9
20260505201505 29 188 3.2 8.0 0.00 0.00 0.00 67 1005.2
20260505200007 29 175 6.4 11.3 0.00 0.00 0.00 68 1005.3
20260505194603 28 171 3.2 9.7 0.00 0.00 0.00 69 1005.5
20260505193056 28 175 1.6 6.4 0.00 0.00 0.00 70 1005.7
20260505191557 28 168 4.8 12.9 0.00 0.00 0.00 71 1006.0
20260505190107 27 146 1.6 11.3 0.00 0.00 0.00 72 1006.2
20260505184601 27 136 3.2 11.3 0.00 0.00 0.00 72 1006.3
20260505183053 27 196 6.4 14.5 0.00 0.00 0.00 73 1006.6
20260505181545 27 165 4.8 16.1 0.00 0.00 0.00 73 1006.7
20260505180046 27 164 3.2 14.5 0.00 0.00 0.00 75 1006.7
20260505174542 26 178 6.4 12.9 0.00 0.00 0.00 76 1006.9
20260505173041 26 153 4.8 11.3 0.00 0.00 0.00 77 1007.0
20260505171540 25 210 4.8 9.7 0.00 0.00 0.00 77 1006.9
20260505170035 25 166 4.8 11.3 0.00 0.00 0.00 78 1007.0
20260505164536 25 174 4.8 9.7 0.00 0.00 0.00 79 1007.1
20260505163030 24 174 6.4 11.3 0.00 0.00 0.00 80 1007.0
20260505161525 23 190 6.4 9.7 0.00 0.00 0.00 80 1007.2